Location: Allos
(44.2333°N, 6.6333°E)
Time: 19:49:25
(UTC+00:00)

Cosmos 2228 Rocket - Pass Details

Date: 02 May 2021
Orbit: 617 x 652 km, 82.5° (Epoch: 05 May)

Event Time Altitude Azimuth Distance (km) Brightness Sun altitude
Exits shadow 23:20:55 29° 312° (NW) 1,150 4.7 -30.1°
Drops below altitude 10° 23:23:54 10° 350° (N) 2,001 6.6 -30.1°
Sets 23:26:21 0° 0° (N) 2,917 7.7 -30.1°
